KE8FSY Weather Reports


time (UTC)temp
C
wind
direction
speed
KPH
gust
KPH
rain 1hr
cm
rain 24hr
cm
rain mn
cm
humidity
%
barometer
mb
20260508152005 18 229 3.2 8.0 0.00 0.00 0.00 45 1016.3
20260508150018 17 212 1.6 9.7 0.00 0.00 0.00 50 1016.5
20260508145007 17 211 1.6 6.4 0.00 0.00 0.00 47 1016.6
20260508143010 16 237 1.6 8.0 0.00 0.00 0.00 50 1016.4
20260508141511 16 258 1.6 11.3 0.00 0.00 0.00 52 1016.7
20260508141004 15 260 1.6 11.3 0.00 0.00 0.00 54 1016.6
20260508140008 15 257 1.6 4.8 0.00 0.00 0.00 55 1016.7
20260508131512 11 291 1.6 8.0 0.00 0.00 0.00 65 1016.9
20260508131008 10 282 4.8 8.0 0.00 0.00 0.00 66 1016.9
20260508130509 10 287 3.2 6.4 0.00 0.00 0.00 66 1016.9
20260508130014 10 295 1.6 4.8 0.00 0.00 0.00 67 1017.0
20260508124507 10 291 3.2 6.4 0.00 0.00 0.00 69 1016.8
20260508123012 8 285 1.6 4.8 0.00 0.00 0.00 72 1016.9
20260508122507 8 289 3.2 11.3 0.00 0.00 0.00 73 1016.8
20260508122008 8 287 3.2 11.3 0.00 0.00 0.00 74 1016.7
20260508121006 7 296 4.8 8.0 0.00 0.00 0.00 77 1016.7
20260508120027 6 299 1.6 6.4 0.00 0.00 0.00 82 1016.7
20260508115508 6 299 3.2 6.4 0.00 0.00 0.00 83 1016.6
20260508115004 5 305 0.0 3.2 0.00 0.00 0.00 89 1016.6
20260508114512 5 305 0.0 0.0 0.00 0.00 0.00 90 1016.7
20260508113507 3 305 0.0 0.0 0.00 0.00 0.00 90 1016.6
20260508112007 2 305 0.0 0.0 0.00 0.00 0.00 89 1016.7
20260508111523 2 305 0.0 0.0 0.00 0.00 0.00 88 1016.6
20260508111004 2 305 0.0 0.0 0.00 0.00 0.00 88 1016.5
20260508110508 2 305 0.0 0.0 0.00 0.00 0.00 88 1016.5
20260508110014 2 305 0.0 0.0 0.00 0.00 0.00 88 1016.5
20260508105507 2 305 0.0 0.0 0.00 0.00 0.00 88 1016.4
20260508105010 2 305 0.0 0.0 0.00 0.00 0.00 88 1016.4
20260508104514 2 305 0.0 0.0 0.00 0.00 0.00 87 1016.3
20260508104007 2 305 0.0 0.0 0.00 0.00 0.00 87 1016.2
20260508103507 2 305 0.0 3.2 0.00 0.00 0.00 87 1016.1
20260508103021 2 305 0.0 3.2 0.00 0.00 0.00 87 1016.1
20260508102506 2 305 0.0 3.2 0.00 0.00 0.00 87 1016.0
20260508102010 2 305 0.0 0.0 0.00 0.00 0.00 87 1016.0
20260508101516 2 305 0.0 0.0 0.00 0.00 0.00 86 1016.0
20260508101007 2 305 0.0 0.0 0.00 0.00 0.00 86 1015.9
20260508100506 2 305 0.0 0.0 0.00 0.00 0.00 86 1015.9
20260508100016 2 305 0.0 3.2 0.00 0.00 0.00 87 1015.9
20260508095507 2 305 0.0 3.2 0.00 0.00 0.00 87 1016.0
20260508095007 2 305 0.0 3.2 0.00 0.00 0.00 87 1015.9
20260508094518 2 305 0.0 3.2 0.00 0.00 0.00 87 1016.0
20260508094006 2 305 0.0 3.2 0.00 0.00 0.00 87 1016.0
20260508093018 2 305 0.0 3.2 0.00 0.00 0.00 87 1015.9
20260508092507 2 305 0.0 3.2 0.00 0.00 0.00 87 1015.9
20260508092007 2 305 0.0 3.2 0.00 0.00 0.00 87 1016.0
20260508091509 2 305 0.0 3.2 0.00 0.00 0.00 87 1016.0
20260508091004 2 305 0.0 3.2 0.00 0.00 0.00 87 1015.9
20260508090507 2 305 0.0 3.2 0.00 0.00 0.00 87 1015.9
20260508090016 2 305 0.0 3.2 0.00 0.00 0.00 87 1015.8
20260508085507 2 305 1.6 3.2 0.00 0.00 0.00 87 1015.8
20260508085007 3 305 0.0 1.6 0.00 0.00 0.00 86 1015.8
20260508084516 3 305 0.0 3.2 0.00 0.00 0.00 86 1015.7
20260508084009 3 305 0.0 3.2 0.00 0.00 0.00 86 1015.7
20260508083507 3 305 0.0 3.2 0.00 0.00 0.00 86 1015.7
20260508083018 3 305 0.0 1.6 0.00 0.00 0.00 86 1015.7
20260508082507 3 305 0.0 0.0 0.00 0.00 0.00 86 1015.7
20260508082007 3 305 0.0 0.0 0.00 0.00 0.00 86 1015.6
20260508081519 3 305 0.0 3.2 0.00 0.00 0.00 86 1015.6
20260508081008 3 305 0.0 3.2 0.00 0.00 0.00 86 1015.7
20260508080016 3 305 0.0 0.0 0.00 0.00 0.00 85 1015.6
20260508075509 3 305 0.0 1.6 0.00 0.00 0.00 85 1015.7
20260508075012 3 305 0.0 3.2 0.00 0.00 0.00 85 1015.6
20260508074519 3 305 0.0 3.2 0.00 0.00 0.00 85 1015.5
20260508074008 3 305 0.0 3.2 0.00 0.00 0.00 85 1015.5
20260508073507 3 305 0.0 3.2 0.00 0.00 0.00 85 1015.5
20260508073018 3 305 0.0 3.2 0.00 0.00 0.00 85 1015.5
20260508072508 3 305 0.0 3.2 0.00 0.00 0.00 85 1015.5
20260508072010 3 305 0.0 3.2 0.00 0.00 0.00 85 1015.5
20260508071518 3 305 0.0 3.2 0.00 0.00 0.00 85 1015.5
20260508071004 3 305 1.6 3.2 0.00 0.00 0.00 85 1015.5
20260508070504 3 305 0.0 3.2 0.00 0.00 0.00 85 1015.5
20260508070011 3 305 0.0 3.2 0.00 0.00 0.00 85 1015.6
20260508065506 3 305 0.0 3.2 0.00 0.00 0.00 85 1015.5
20260508065007 3 305 0.0 3.2 0.00 0.00 0.00 84 1015.5
20260508064525 3 305 0.0 0.0 0.00 0.00 0.00 84 1015.5
20260508064006 4 305 0.0 0.0 0.00 0.00 0.00 84 1015.5
20260508063512 4 305 0.0 1.6 0.00 0.00 0.00 84 1015.6
20260508063003 4 305 0.0 3.2 0.00 0.00 0.00 84 1015.6
20260508062503 4 305 0.0 3.2 0.00 0.00 0.00 84 1015.7
20260508062003 4 305 0.0 3.2 0.00 0.00 0.00 83 1015.7
20260508061508 4 305 0.0 3.2 0.00 0.00 0.00 83 1015.7
20260508061003 4 305 0.0 3.2 0.00 0.00 0.00 83 1015.8
20260508060506 4 305 0.0 3.2 0.00 0.00 0.00 83 1015.8
20260508060011 4 305 0.0 3.2 0.00 0.00 0.00 83 1015.8
20260508055504 4 305 0.0 3.2 0.00 0.00 0.00 83 1015.8
20260508055007 5 305 0.0 3.2 0.00 0.00 0.00 83 1015.8
20260508054515 5 305 0.0 3.2 0.00 0.00 0.00 82 1015.8
20260508054005 5 305 0.0 3.2 0.00 0.00 0.00 82 1015.8
20260508053506 5 305 0.0 3.2 0.00 0.00 0.00 82 1015.8
20260508053020 5 305 0.0 1.6 0.00 0.00 0.00 82 1015.8
20260508052508 5 305 0.0 0.0 0.00 0.00 0.00 81 1015.7
20260508052003 5 305 0.0 0.0 0.00 0.00 0.00 81 1015.6
20260508051004 5 305 0.0 3.2 0.00 0.00 0.00 80 1015.6
20260508050504 5 305 0.0 3.2 0.00 0.00 0.00 80 1015.7
20260508050010 5 305 0.0 3.2 0.00 0.00 0.00 80 1015.7
20260508045503 5 305 0.0 1.6 0.00 0.00 0.00 79 1015.7
20260508045004 5 305 0.0 3.2 0.00 0.00 0.00 79 1015.7
20260508044511 5 305 0.0 3.2 0.00 0.00 0.00 79 1015.8
20260508044009 5 305 0.0 3.2 0.00 0.00 0.00 79 1015.9
20260508043507 6 305 1.6 3.2 0.00 0.00 0.00 79 1015.8
20260508043021 6 305 0.0 1.6 0.00 0.00 0.00 78 1015.8
20260508042506 6 305 0.0 1.6 0.00 0.00 0.00 78 1015.8
20260508041519 6 305 0.0 0.0 0.00 0.00 0.00 77 1015.8
20260508041011 6 305 0.0 3.2 0.00 0.00 0.00 76 1015.8
20260508040504 6 305 0.0 3.2 0.00 0.00 0.00 77 1015.9
20260508040005 6 305 0.0 1.6 0.00 0.00 0.00 77 1015.9
20260508035505 6 305 0.0 1.6 0.00 0.00 0.00 76 1015.8
20260508035003 6 305 0.0 1.6 0.00 0.00 0.00 76 1015.8
20260508034508 6 305 0.0 1.6 0.00 0.00 0.00 75 1015.9
20260508034004 7 305 0.0 1.6 0.00 0.00 0.00 75 1015.9
20260508033504 7 305 0.0 1.6 0.00 0.00 0.00 74 1015.9
20260508033014 7 305 0.0 1.6 0.00 0.00 0.00 73 1015.9
20260508032009 7 305 1.6 1.6 0.00 0.00 0.00 72 1015.9
20260508031524 7 305 0.0 1.6 0.00 0.00 0.00 71 1015.9
20260508030507 8 305 0.0 0.0 0.00 0.00 0.00 70 1015.9
20260508030022 8 305 0.0 3.2 0.00 0.00 0.00 69 1015.8
20260508025507 8 305 0.0 3.2 0.00 0.00 0.00 69 1015.8
20260508025004 8 305 0.0 0.0 0.00 0.00 0.00 68 1015.8
20260508024004 8 305 0.0 0.0 0.00 0.00 0.00 66 1015.7
20260508023504 8 305 0.0 1.6 0.00 0.00 0.00 66 1015.6
20260508023011 8 305 0.0 3.2 0.00 0.00 0.00 66 1015.5
20260508022504 9 305 0.0 3.2 0.00 0.00 0.00 66 1015.4
20260508022006 9 305 0.0 3.2 0.00 0.00 0.00 65 1015.4
20260508021520 9 305 0.0 3.2 0.00 0.00 0.00 65 1015.3
20260508021009 9 305 0.0 3.2 0.00 0.00 0.00 63 1015.2
20260508020507 9 305 0.0 3.2 0.00 0.00 0.00 64 1015.2
20260508020033 9 305 0.0 3.2 0.00 0.00 0.00 63 1015.1
20260508015507 10 305 0.0 3.2 0.00 0.00 0.00 62 1015.1
20260508015009 10 305 0.0 1.6 0.00 0.00 0.00 61 1015.0
20260508014526 10 305 0.0 3.2 0.00 0.00 0.00 61 1014.9
20260508014004 10 305 1.6 3.2 0.00 0.00 0.00 60 1014.8
20260508013507 10 305 0.0 3.2 0.00 0.00 0.00 58 1014.7
20260508013011 11 305 0.0 3.2 0.00 0.00 0.00 57 1014.6
20260508012507 11 305 1.6 3.2 0.00 0.00 0.00 56 1014.5
20260508012007 11 305 1.6 3.2 0.00 0.00 0.00 56 1014.4
20260508011514 11 319 1.6 3.2 0.00 0.00 0.00 55 1014.2
20260508011007 12 319 0.0 3.2 0.00 0.00 0.00 54 1014.3
20260508005507 13 319 0.0 3.2 0.00 0.00 0.00 51 1014.1
20260508004013 13 319 0.0 3.2 0.00 0.00 0.00 47 1014.0
20260508003006 14 319 0.0 0.0 0.00 0.00 0.00 45 1013.9
20260508002506 15 319 0.0 0.0 0.00 0.00 0.00 45 1013.8
20260508002008 15 319 0.0 0.0 0.00 0.00 0.00 42 1013.8
20260508001512 15 319 0.0 0.0 0.00 0.00 0.00 43 1013.7
20260508001004 16 319 0.0 0.0 0.00 0.00 0.00 40 1013.7
20260508000508 16 319 0.0 1.6 0.00 0.00 0.00 40 1013.6
20260508000017 16 319 0.0 3.2 0.00 0.00 0.00 38 1013.6
20260507235513 16 319 0.0 3.2 0.00 0.00 0.00 36 1013.6
20260507235005 16 291 0.0 3.2 0.00 0.00 0.00 35 1013.5
20260507234526 17 291 0.0 4.8 0.00 0.00 0.00 34 1013.4
20260507234007 17 295 1.6 4.8 0.00 0.00 0.00 34 1013.3
20260507233507 17 287 1.6 8.0 0.00 0.00 0.00 34 1013.3
20260507233024 17 280 3.2 11.3 0.00 0.00 0.00 32 1013.2
20260507232511 17 312 3.2 11.3 0.00 0.00 0.00 32 1013.2
20260507232005 17 287 1.6 12.9 0.00 0.00 0.00 33 1013.2
20260507231511 17 309 1.6 12.9 0.00 0.00 0.00 32 1013.1
20260507231007 17 276 1.6 11.3 0.00 0.00 0.00 32 1013.1
20260507230507 17 293 1.6 12.9 0.00 0.00 0.00 33 1013.1
20260507230015 17 322 3.2 12.9 0.00 0.00 0.00 31 1013.1
20260507225507 17 310 1.6 6.4 0.00 0.00 0.00 31 1013.1
20260507225008 17 304 1.6 14.5 0.00 0.00 0.00 32 1013.2
20260507224525 17 303 1.6 14.5 0.00 0.00 0.00 32 1013.2
20260507224007 17 289 3.2 12.9 0.00 0.00 0.00 32 1013.1
20260507223510 17 264 4.8 17.7 0.00 0.00 0.00 32 1013.1
20260507223025 17 271 8.0 17.7 0.00 0.00 0.00 33 1013.1
20260507222509 17 240 1.6 17.7 0.00 0.00 0.00 34 1013.0
20260507222010 17 283 8.0 17.7 0.00 0.00 0.00 32 1013.1
20260507221526 17 268 8.0 16.1 0.00 0.00 0.00 32 1013.0
20260507221009 17 274 3.2 19.3 0.00 0.00 0.00 34 1012.9
20260507220506 17 285 8.0 19.3 0.00 0.00 0.00 36 1012.9
20260507220014 17 280 6.4 16.1 0.00 0.00 0.00 34 1012.8
20260507215507 17 329 4.8 17.7 0.00 0.00 0.00 33 1012.8
20260507215007 17 284 6.4 17.7 0.00 0.00 0.00 35 1012.6
20260507214523 17 294 6.4 20.9 0.00 0.00 0.00 36 1012.7
20260507214009 17 287 4.8 20.9 0.00 0.00 0.00 37 1012.7
20260507213508 17 280 8.0 20.9 0.00 0.00 0.00 37 1012.7
20260507213020 17 264 1.6 16.1 0.00 0.00 0.00 35 1012.5
20260507212511 17 231 3.2 11.3 0.00 0.00 0.00 38 1012.5
20260507212010 17 280 1.6 11.3 0.00 0.00 0.00 39 1012.4
20260507211523 17 287 1.6 12.9 0.00 0.00 0.00 38 1012.3
20260507211008 17 274 4.8 17.7 0.00 0.00 0.00 38 1012.4
20260507210518 17 299 4.8 17.7 0.00 0.00 0.00 39 1012.5
20260507210028 17 313 1.6 14.5 0.00 0.00 0.00 39 1012.4
20260507205508 17 281 6.4 14.5 0.00 0.00 0.00 37 1012.4
20260507205007 17 264 6.4 16.1 0.00 0.00 0.00 37 1012.1
20260507204518 17 276 3.2 16.1 0.00 0.00 0.00 39 1012.2
20260507204006 17 286 8.0 16.1 0.00 0.00 0.00 38 1012.2
20260507203512 17 282 6.4 17.7 0.00 0.00 0.00 40 1012.2
20260507203020 17 288 6.4 17.7 0.00 0.00 0.00 39 1012.1
20260507202509 17 338 4.8 14.5 0.00 0.00 0.00 39 1012.1
20260507202010 17 42 1.6 19.3 0.00 0.00 0.00 38 1012.1
20260507201525 17 294 4.8 19.3 0.00 0.00 0.00 38 1012.1
20260507201010 17 287 4.8 17.7 0.00 0.00 0.00 40 1012.1
20260507200508 17 304 3.2 17.7 0.00 0.00 0.00 38 1012.1
20260507200027 17 303 3.2 12.9 0.00 0.00 0.00 40 1012.1
20260507195509 17 120 1.6 12.9 0.00 0.00 0.00 40 1012.2
20260507195013 17 290 6.4 14.5 0.00 0.00 0.00 39 1012.4
20260507194515 17 253 3.2 14.5 0.00 0.00 0.00 40 1012.4
20260507193509 17 253 1.6 16.1 0.00 0.00 0.00 40 1012.2
20260507192508 17 229 3.2 12.9 0.00 0.00 0.00 42 1012.4
20260507192008 17 251 3.2 14.5 0.00 0.00 0.00 40 1012.5
20260507191522 17 291 4.8 14.5 0.00 0.00 0.00 38 1012.4
20260507191009 17 109 3.2 8.0 0.00 0.00 0.00 42 1012.5
20260507190511 17 185 1.6 11.3 0.00 0.00 0.00 41 1012.6
20260507190026 17 322 3.2 11.3 0.00 0.00 0.00 41 1012.7
20260507185512 17 256 4.8 11.3 0.00 0.00 0.00 43 1012.9
20260507185011 17 94 4.8 11.3 0.00 0.00 0.00 42 1012.9
20260507184515 16 242 1.6 16.1 0.00 0.00 0.00 46 1013.0
20260507184007 16 276 6.4 16.1 0.00 0.00 0.00 42 1013.0
20260507183506 16 344 4.8 17.7 0.00 0.00 0.00 42 1013.1
20260507183018 16 324 8.0 17.7 0.00 0.00 0.00 41 1013.0
20260507182508 16 359 3.2 14.5 0.00 0.00 0.00 44 1013.1
20260507182002 16 278 3.2 12.9 0.00 0.00 0.00 44 1013.2
20260507181506 16 298 4.8 17.7 0.00 0.00 0.00 44 1013.3
20260507181003 16 290 3.2 17.7 0.00 0.00 0.00 44 1013.2
20260507180504 16 301 1.6 16.1 0.00 0.00 0.00 44 1013.2
20260507180007 16 268 3.2 16.1 0.00 0.00 0.00 43 1013.2
20260507175503 16 268 3.2 11.3 0.00 0.00 0.00 49 1013.3
20260507175006 16 259 3.2 11.3 0.00 0.00 0.00 42 1013.3
20260507174511 17 284 1.6 17.7 0.00 0.00 0.00 42 1013.4
20260507174004 17 256 3.2 17.7 0.00 0.00 0.00 44 1013.5
20260507173030 17 270 4.8 11.3 0.00 0.00 0.00 46 1013.5
20260507172008 17 174 3.2 14.5 0.00 0.00 0.00 42 1013.5
20260507171522 17 290 8.0 12.9 0.00 0.00 0.00 43 1013.6
20260507171003 17 15 1.6 8.0 0.00 0.00 0.00 41 1013.5
20260507170503 17 289 1.6 8.0 0.00 0.00 0.00 44 1013.7
20260507170005 17 303 1.6 8.0 0.00 0.00 0.00 44 1013.7
20260507165002 17 264 3.2 12.9 0.00 0.00 0.00 43 1013.9
20260507164510 16 261 3.2 22.5 0.00 0.00 0.00 47 1013.9
20260507164003 16 304 8.0 22.5 0.00 0.00 0.00 43 1014.0
20260507163505 16 275 0.0 14.5 0.00 0.00 0.00 46 1013.9
20260507163015 16 198 1.6 14.5 0.00 0.00 0.00 47 1013.9
20260507162507 16 304 3.2 12.9 0.00 0.00 0.00 46 1013.9
20260507162008 16 272 4.8 11.3 0.00 0.00 0.00 45 1014.0
20260507161523 16 225 3.2 17.7 0.00 0.00 0.00 49 1014.0
20260507161006 16 288 8.0 17.7 0.00 0.00 0.00 46 1014.2
20260507160004 16 133 3.2 12.9 0.00 0.00 0.00 47 1014.0
20260507155504 16 256 1.6 11.3 0.00 0.00 0.00 47 1014.2
20260507155004 16 178 1.6 11.3 0.00 0.00 0.00 49 1014.1
20260507154508 16 231 4.8 11.3 0.00 0.00 0.00 51 1014.1
20260507154003 15 149 1.6 8.0 0.00 0.00 0.00 48 1014.2
20260507153505 15 293 3.2 8.0 0.00 0.00 0.00 49 1014.2